This is the latest recevied weather packets stored in our database for station/object KC3SOZ. If no packets are shown the sender has not sent any weather packets the latest 10 day(s).
| Time | Temp. | Humidity | Pressure | Rain* | Wind** | Luminosity | Snow |
|---|---|---|---|---|---|---|---|
| 1778283901 | 12.78° C | 79% | 1012.1 hPa | 0 mm | - | 13 W/m² | - |
| 1778283598 | 12.78° C | 79% | 1012 hPa | 0 mm | - | 19 W/m² | - |
| 1778283297 | 13.33° C | 74% | 1011.9 hPa | 0 mm | - | 24 W/m² | - |
| 1778282994 | 13.33° C | 74% | 1012 hPa | 0 mm | - | 28 W/m² | - |
| 1778282691 | 13.33° C | 74% | 1012 hPa | 0 mm | - | 34 W/m² | - |
| 1778282388 | 13.33° C | 74% | 1012.1 hPa | 0 mm | - | 24 W/m² | - |
| 1778282085 | 13.33° C | 73% | 1012.2 hPa | 0 mm | - | 22 W/m² | - |
| 1778281782 | 13.33° C | 73% | 1012.1 hPa | 0 mm | - | 12 W/m² | - |
| 1778281479 | 13.89° C | 73% | 1012.2 hPa | 0 mm | - | 8 W/m² | - |
| 1778281176 | 13.89° C | 71% | 1012.2 hPa | 0 mm | - | 13 W/m² | - |
| 1778280872 | 13.89° C | 69% | 1012.1 hPa | 0 mm | - | 12 W/m² | - |
| 1778280570 | 14.44° C | 67% | 1012.2 hPa | 0 mm | - | 10 W/m² | - |
| 1778280268 | 14.44° C | 65% | 1012.2 hPa | 0 mm | - | 12 W/m² | - |
| 1778279964 | 15° C | 64% | 1012.1 hPa | 0 mm | - | 13 W/m² | - |
| 1778279663 | 15° C | 64% | 1011.8 hPa | 0 mm | - | 17 W/m² | - |
| 1778279359 | 15° C | 63% | 1011.8 hPa | 0 mm | - | 21 W/m² | - |
| 1778279057 | 15.56° C | 60% | 1011.8 hPa | 0 mm | - | 26 W/m² | - |
| 1778278753 | 15.56° C | 59% | 1011.7 hPa | 0 mm | - | 31 W/m² | - |
| 1778278449 | 15.56° C | 59% | 1011.6 hPa | 0 mm | - | 41 W/m² | - |
| 1778278145 | 15.56° C | 59% | 1011.6 hPa | 0 mm | - | 49 W/m² | - |
| 1778277842 | 15.56° C | 57% | 1011.5 hPa | 0 mm | - | 64 W/m² | - |
| 1778277538 | 15.56° C | 57% | 1011.6 hPa | 0 mm | - | 66 W/m² | - |
| 1778277235 | 15.56° C | 56% | 1011.3 hPa | 0 mm | - | 94 W/m² | - |
| 1778276932 | 15.56° C | 57% | 1011.6 hPa | 0 mm | - | 96 W/m² | - |
| 1778276630 | 15.56° C | 58% | 1011.5 hPa | 0 mm | - | 119 W/m² | - |
* Rain latest hour (hover to see other rain measurements)
** Current wind speed in m/s (hover to see current wind gust speed)